This is the latest recevied weather packets stored in our database for station/object KE0QIB. If no packets are shown the sender has not sent any weather packets the latest 10 day(s).
| Time | Temp. | Humidity | Pressure | Rain* | Wind** | Luminosity | Snow |
|---|---|---|---|---|---|---|---|
| 1777487530 | 11.67° C | 38% | 1004 hPa | 0 mm | - | - | - |
| 1777487230 | 11.67° C | 42% | 1004 hPa | 0 mm | - | - | - |
| 1777486930 | 11.67° C | 42% | 1004 hPa | 0 mm | - | - | - |
| 1777486630 | 11.67° C | 40% | 1004 hPa | 0 mm | - | - | - |
| 1777486330 | 11.67° C | 40% | 1004 hPa | 0 mm | - | - | - |
| 1777486030 | 11.67° C | 42% | 1003.9 hPa | 0 mm | - | - | - |
| 1777485730 | 12.22° C | 37% | 1003.9 hPa | 0 mm | - | - | - |
| 1777485430 | 12.22° C | 40% | 1003.9 hPa | 0 mm | - | - | - |
| 1777485130 | 11.67° C | 41% | 1004.4 hPa | 0 mm | - | - | - |
| 1777484830 | 11.67° C | 39% | 1004.4 hPa | 0 mm | - | - | - |
| 1777484530 | 11.67° C | 40% | 1004.4 hPa | 0 mm | - | - | - |
| 1777484230 | 11.11° C | 40% | 1004.4 hPa | 0 mm | - | - | - |
| 1777483930 | 11.11° C | 42% | 1004.4 hPa | 0 mm | - | - | - |
| 1777483630 | 11.11° C | 44% | 1004.4 hPa | 0 mm | - | - | - |
| 1777483330 | 11.11° C | 44% | 1004.4 hPa | 0 mm | - | - | - |
| 1777483030 | 11.67° C | 46% | 1004.4 hPa | 0 mm | - | - | - |
| 1777482730 | 11.67° C | 47% | 1004.4 hPa | 0 mm | - | - | - |
| 1777482430 | 11.67° C | 48% | 1004.8 hPa | 0 mm | - | - | - |
| 1777482130 | 11.67° C | 49% | 1004.8 hPa | 0 mm | - | - | - |
| 1777481830 | 11.11° C | 53% | 1004.8 hPa | 0 mm | - | - | - |
| 1777481530 | 11.11° C | 51% | 1005.3 hPa | 0 mm | - | - | - |
| 1777481230 | 10.56° C | 54% | 1005.3 hPa | 0 mm | - | - | - |
| 1777480930 | 10° C | 53% | 1005.3 hPa | 0 mm | - | - | - |
| 1777480630 | 10° C | 56% | 1005.3 hPa | 0 mm | - | - | - |
| 1777480330 | 9.44° C | 54% | 1005.3 hPa | 0 mm | - | - | - |
* Rain latest hour (hover to see other rain measurements)
** Current wind speed in m/s (hover to see current wind gust speed)